CST,Max TemperatureF,Mean TemperatureF,Min TemperatureF,Max Dew PointF,MeanDew PointF,Min DewpointF,Max Humidity, Mean Humidity, Min Humidity, Max Sea Level PressureIn, Mean Sea Level PressureIn, Min Sea Level PressureIn, Max VisibilityMiles, Mean VisibilityMiles, Min VisibilityMiles, Max Wind SpeedMPH, Mean Wind SpeedMPH, Max Gust SpeedMPH,PrecipitationIn, CloudCover, Events, WindDirDegrees
2013-2-1,53,42,30,30,25,13,85,53,22,30.40,30.34,30.26,10,10,10,13,6,21,0.00,0,,318
2013-2-2,64,46,27,48,29,20,93,54,21,30.35,30.25,30.15,10,10,9,14,3,20,0.14,2,Rain,219
2013-2-3,64,50,35,47,36,28,100,72,25,30.22,30.16,30.08,10,7,0,14,4,24,0.00,1,Fog,281
2013-2-4,60,46,33,41,34,30,92,62,33,30.13,30.06,30.00,10,10,10,8,3,24,0.00,0,,163
2013-2-5,69,58,48,56,50,41,94,79,61,30.05,30.01,29.97,10,10,7,9,2,,0.00,4,,175
2013-2-6,72,59,46,55,50,46,100,83,44,30.15,30.09,30.04,10,6,0,8,1,,0.00,4,Fog,35
2013-2-7,69,62,54,60,56,51,100,92,65,30.06,29.93,29.81,10,6,0,17,5,21,1.51,8,Fog-Rain,39
2013-2-8,66,56,44,57,52,40,100,82,63,30.19,30.05,29.93,10,9,4,17,5,22,0.06,7,Rain,325
2013-2-9,64,48,32,43,35,30,92,69,30,30.27,30.21,30.17,10,9,2,9,5,,0.00,0,,64
2013-2-10,69,58,46,63,55,39,96,86,64,30.17,30.07,29.98,10,8,1,18,8,28,2.09,7,Rain-Thunderstorm,124
2013-2-11,64,60,55,61,56,53,96,92,67,30.14,30.09,30.01,10,7,2,20,6,25,1.50,8,Rain-Thunderstorm,17
2013-2-12,55,52,48,54,49,46,100,93,82,30.09,29.91,29.78,10,7,1,13,8,18,1.26,8,Rain-Thunderstorm,47
2013-2-13,55,48,39,55,46,36,100,87,76,30.04,29.89,29.75,10,8,0,16,6,28,0.08,6,Fog-Rain,281
2013-2-14,57,47,36,40,36,34,93,78,42,30.14,30.08,30.04,10,9,5,7,3,,0.01,0,,332
2013-2-15,64,48,33,40,34,30,93,60,28,30.15,30.08,30.03,10,10,10,9,2,,0.00,0,,324
2013-2-16,50,42,30,37,23,9,71,48,21,30.25,30.12,30.03,10,10,10,21,8,30,0.00,4,,303
2013-2-17,53,40,26,29,18,6,81,50,16,30.37,30.30,30.24,10,10,10,12,3,,0.00,0,,279
2013-2-18,63,48,32,40,33,27,85,57,30,30.32,30.22,30.05,10,10,10,15,5,22,0.00,2,Rain,158
2013-2-19,62,53,42,54,44,25,100,71,31,30.21,30.07,29.93,10,8,1,16,9,29,0.62,5,Rain,294
2013-2-20,57,44,32,30,23,18,76,48,23,30.24,30.18,30.10,10,10,10,13,6,,0.00,0,,2
2013-2-21,66,52,37,55,34,21,81,48,26,30.13,30.01,29.92,10,10,10,13,6,20,0.00,2,,117
2013-2-22,63,58,53,62,58,52,97,94,90,30.01,29.93,29.88,10,5,1,14,6,,0.78,8,Rain-Thunderstorm,51
2013-2-23,57,54,51,54,51,49,97,92,81,29.96,29.90,29.85,10,8,1,12,5,,0.61,7,Rain-Thunderstorm,352
2013-2-24,71,56,42,47,42,35,100,68,28,30.02,29.96,29.86,10,6,0,7,3,,0.00,1,Fog,59
2013-2-25,63,57,51,57,54,42,100,91,56,29.87,29.73,29.56,10,8,2,20,9,28,1.92,8,Rain-Thunderstorm,107
2013-2-26,61,54,45,59,48,34,96,75,42,29.89,29.62,29.49,10,9,2,20,7,25,0.50,4,Rain-Hail,223
2013-2-27,63,50,37,40,36,33,93,63,33,29.99,29.94,29.90,10,10,10,15,3,22,0.00,1,,268
2013-2-28,52,46,41,37,31,27,71,55,38,30.03,29.99,29.95,10,10,10,15,8,24,0.00,0,,309